Weather History for KVYS - February, 2011

Change the Weather History Date:

Wednesday, February 2, 2011

  Actual Average Record
Temperature  
Mean Temperature 19 °F -  
Max Temperature 23 °F 32 °F 51 °F (1990)
Min Temperature 14 °F 13 °F -11 °F (1985)
Degree Days  
Heating Degree Days 46    
Moisture  
Dew Point 15 °F    
Average Humidity 81    
Maximum Humidity 90    
Minimum Humidity 68    
Precipitation  
Precipitation 0.00 in - - ()
Sea Level Pressure  
Sea Level Pressure 30.11 in    
Wind  
Wind Speed 26 mph (NNW)    
Max Wind Speed 33 mph    
Max Gust Speed 43 mph    
Visibility 10 miles    
Events      
Averages and records for this station are not official NWS values.
T = Trace of Precipitation, MM = Missing Value Source: NWS Daily Summary

Daily Weather History Graph

Daily Weather History Graph

Search for Another Location

Airport or City:

Trip Planner

Search our weather history database for the weather conditions in past years. The results will help you decide how hot, cold, wet, or windy it might be!

Date:

Astronomy

Feb. 02, 2011 Rise Set
Actual Time 7:07 AM CST 5:13 PM CST
Civil Twilight 6:38 AM CST 5:43 PM CST
Nautical Twilight 6:04 AM CST 6:16 PM CST
Astronomical Twilight 5:32 AM CST 6:48 PM CST
Moon 6:38 AM CST (2/2) 5:09 PM CST (2/2)
Length of Visible Light 11h 05m
Length of Day
10h 06m
Waning Crescent, 0% of the Moon is Illuminated
Feb 2
Waning Crescent
Feb 2
New
Feb 11
First Quarter
Feb 18
Full
Feb 24
Last Quarter

Hourly Weather History & Observations

Time (CST) Temp. Windchill Dew Point Humidity Pressure Visibility Wind Dir Wind Speed Gust Speed Precip Events Conditions
12:05 AM 21.7 °F 3.4 °F 19.2 °F 90% 29.69 in - NNE 31.1 mph 39.1 mph N/A   Unknown
12:25 AM 21.6 °F 4.3 °F 18.9 °F 89% 29.70 in - North 26.5 mph 42.6 mph N/A   Overcast
12:45 AM 21.2 °F 2.7 °F 18.5 °F 89% 29.70 in - NNE 31.1 mph 42.6 mph N/A   Overcast
1:05 AM 21.2 °F 2.2 °F 18.5 °F 89% 29.71 in - NNE 33.4 mph 42.6 mph N/A   Unknown
1:25 AM 21.2 °F 2.7 °F 18.5 °F 89% 29.72 in - North 31.1 mph 38.0 mph N/A   Unknown
1:45 AM 21.2 °F 3.3 °F 18.1 °F 88% 29.74 in - North 28.8 mph 35.7 mph N/A   Unknown
2:05 AM 21.2 °F 3.3 °F 18.1 °F 88% 29.75 in - North 28.8 mph 36.8 mph N/A   Unknown
2:25 AM 21.2 °F 3.5 °F 18.1 °F 88% 29.77 in - North 27.6 mph 34.5 mph N/A   Overcast
2:45 AM 20.3 °F 4.0 °F 16.9 °F 87% 29.79 in - NNW 21.9 mph - N/A   Overcast
3:05 AM 19.0 °F 1.6 °F 15.8 °F 87% 29.81 in - NNW 24.2 mph 31.1 mph N/A   Overcast
3:25 AM 18.9 °F 1.0 °F 15.8 °F 88% 29.83 in - NNW 25.3 mph 32.2 mph N/A   Overcast
3:45 AM 18.9 °F 1.0 °F 15.8 °F 88% 29.84 in - NNW 25.3 mph 31.1 mph N/A   Overcast
4:05 AM 18.9 °F 0.7 °F 15.8 °F 88% 29.86 in - NNW 26.5 mph 33.4 mph N/A   Overcast
4:25 AM 18.9 °F 1.7 °F 15.6 °F 87% 29.88 in - NNW 23.0 mph 32.2 mph N/A   Unknown
4:45 AM 19.4 °F 1.4 °F 15.8 °F 86% 29.89 in - NNW 26.5 mph 34.5 mph N/A   Overcast
5:05 AM 18.5 °F -0.7 °F 14.9 °F 86% 29.91 in - NNW 29.9 mph 34.5 mph N/A   Overcast
5:25 AM 18.5 °F -0.7 °F 15.3 °F 87% 29.93 in - NNW 29.9 mph 36.8 mph N/A   Overcast
5:45 AM 19.4 °F 1.1 °F 15.8 °F 86% 29.95 in - NNW 27.6 mph 35.7 mph N/A   Unknown
6:05 AM 18.5 °F 0.2 °F 14.9 °F 86% 29.98 in - NNW 26.5 mph 33.4 mph N/A   Unknown
6:25 AM 18.5 °F 0.2 °F 14.9 °F 86% 29.99 in - NNW 26.5 mph 32.2 mph N/A   Unknown
6:45 AM 18.5 °F -0.1 °F 14.9 °F 86% 30.01 in - NNW 27.6 mph 33.4 mph N/A   Overcast
7:05 AM 18.5 °F -0.1 °F 14.9 °F 86% 30.03 in - NNW 27.6 mph 34.5 mph N/A   Overcast
7:25 AM 18.5 °F -0.1 °F 14.7 °F 85% 30.05 in - NNW 27.6 mph 35.7 mph N/A   Overcast
7:45 AM 18.5 °F -0.4 °F 14.7 °F 85% 30.07 in - NNW 28.8 mph 36.8 mph N/A   Unknown
8:05 AM 18.5 °F -1.0 °F 14.7 °F 85% 30.09 in - NNW 31.1 mph 35.7 mph N/A   Unknown
8:25 AM 18.5 °F -0.1 °F 14.7 °F 85% 30.10 in - NNW 27.6 mph 38.0 mph N/A   Overcast
8:45 AM 18.9 °F -0.2 °F 14.7 °F 84% 30.12 in - NNW 29.9 mph 38.0 mph N/A   Overcast
9:05 AM 19.2 °F 0.3 °F 14.7 °F 83% 30.13 in - NNW 29.9 mph 35.7 mph N/A   Unknown
9:25 AM 19.9 °F 2.5 °F 15.3 °F 82% 30.16 in - NNW 25.3 mph 33.4 mph N/A   Overcast
9:45 AM 19.9 °F 2.5 °F 14.7 °F 80% 30.18 in - NNW 25.3 mph 29.9 mph N/A   Overcast
10:05 AM 20.3 °F 3.3 °F 14.9 °F 80% 30.19 in - NNW 24.2 mph 28.8 mph N/A   Mostly Cloudy
10:25 AM 20.7 °F 3.5 °F 14.7 °F 78% 30.21 in - NNW 25.3 mph 31.1 mph N/A   Clear
10:45 AM 20.8 °F 4.0 °F 14.9 °F 78% 30.23 in - NNW 24.2 mph 31.1 mph N/A   Clear
11:05 AM 21.2 °F 3.5 °F 15.3 °F 78% 30.25 in - NNW 27.6 mph 31.1 mph N/A   Scattered Clouds
11:25 AM 21.7 °F 5.9 °F 15.4 °F 77% 30.26 in - NNW 21.9 mph 27.6 mph N/A   Scattered Clouds
11:45 AM 21.7 °F 6.7 °F 14.9 °F 75% 30.26 in - NNW 19.6 mph 27.6 mph N/A   Scattered Clouds
12:05 PM 21.9 °F 5.8 °F 14.2 °F 72% 30.27 in - NNW 23.0 mph 31.1 mph N/A   Clear
12:25 PM 21.4 °F 6.6 °F 14.4 °F 74% 30.28 in - NNW 18.4 mph 27.6 mph N/A   Clear
12:45 PM 22.6 °F 8.7 °F 15.3 °F 73% 30.29 in - NNW 17.3 mph 20.7 mph N/A   Scattered Clouds
1:05 PM 22.6 °F 8.3 °F 15.3 °F 73% 30.30 in - NW 18.4 mph - N/A   Scattered Clouds
1:25 PM 22.6 °F 9.6 °F 15.3 °F 73% 30.31 in - NW 15.0 mph - N/A   Clear
1:45 PM 23.0 °F 10.1 °F 14.0 °F 68% 30.32 in - NNW 15.0 mph - N/A   Scattered Clouds
2:05 PM 22.6 °F 7.9 °F 14.5 °F 71% 30.33 in - NNW 19.6 mph - N/A   Overcast
2:25 PM 21.2 °F 6.4 °F 14.0 °F 74% 30.34 in - NW 18.4 mph - N/A   Overcast
2:45 PM 20.8 °F 5.9 °F 13.5 °F 73% 30.36 in - NW 18.4 mph - N/A   Scattered Clouds
3:05 PM 20.3 °F 5.7 °F 13.1 °F 74% 30.36 in - NW 17.3 mph 20.7 mph N/A   Clear
3:25 PM 19.9 °F 6.2 °F 12.6 °F 73% 30.38 in - NW 15.0 mph - N/A   Clear
3:45 PM 19.9 °F 5.7 °F 12.2 °F 72% 30.39 in - WNW 16.1 mph - N/A   Mostly Cloudy
4:05 PM 19.9 °F 5.7 °F 12.2 °F 72% 30.40 in - WNW 16.1 mph - N/A   Overcast
4:25 PM 18.7 °F 4.6 °F 11.8 °F 75% 30.41 in - WNW 15.0 mph - N/A   Overcast
4:45 PM 18.5 °F 4.9 °F 11.3 °F 73% 30.43 in - WNW 13.8 mph - N/A   Overcast
5:05 PM 17.4 °F 4.7 °F 10.4 °F 74% 30.43 in - WNW 11.5 mph - N/A   Scattered Clouds
5:25 PM 15.8 °F 1.4 °F 9.5 °F 76% 30.44 in - WNW 13.8 mph - N/A   Clear
5:45 PM 15.6 °F 2.5 °F 9.1 °F 76% 30.46 in 10.0 mi WNW 11.5 mph - N/A   Clear
6:05 PM 15.1 °F 2.5 °F 8.6 °F 76% 30.46 in 10.0 mi WNW 10.4 mph 17.3 mph N/A   Clear
6:25 PM 14.7 °F 0.7 °F 8.2 °F 75% 30.47 in 10.0 mi WNW 12.7 mph - N/A   Clear
6:45 PM 13.8 °F 1.0 °F 7.3 °F 75% 30.48 in 10.0 mi West 10.4 mph - N/A   Clear
7:05 PM 12.9 °F -0.2 °F 6.4 °F 75% 30.49 in 10.0 mi WNW 10.4 mph - N/A   Clear
7:25 PM 12.2 °F -0.2 °F 5.9 °F 76% 30.49 in 10.0 mi WNW 9.2 mph - N/A   Clear
7:45 PM 11.1 °F -2.4 °F 4.8 °F 76% 30.49 in 10.0 mi WNW 10.4 mph - N/A   Clear
8:05 PM 10.2 °F -2.7 °F 4.1 °F 76% 30.50 in 10.0 mi WNW 9.2 mph - N/A   Clear
8:25 PM 10.2 °F -2.7 °F 4.1 °F 76% 30.49 in 10.0 mi WNW 9.2 mph - N/A   Clear
8:45 PM 9.1 °F -4.9 °F 3.2 °F 77% 30.49 in 10.0 mi West 10.4 mph - N/A   Clear
9:05 PM 8.8 °F -6.1 °F 2.8 °F 77% 30.50 in 10.0 mi West 11.5 mph - N/A   Clear
9:25 PM 8.2 °F -6.8 °F 2.3 °F 77% 30.50 in 10.0 mi West 11.5 mph - N/A   Clear
9:45 PM 8.1 °F -7.0 °F 2.3 °F 77% 30.50 in 10.0 mi West 11.5 mph - N/A   Clear
10:05 PM 7.2 °F -8.1 °F 1.2 °F 77% 30.50 in 10.0 mi West 11.5 mph - N/A   Clear
10:25 PM 7.3 °F -7.9 °F 0.5 °F 74% 30.51 in 10.0 mi West 11.5 mph - N/A   Clear
10:45 PM 6.8 °F -7.8 °F -0.4 °F 72% 30.51 in 10.0 mi WNW 10.4 mph - N/A   Clear
11:05 PM 5.9 °F -8.9 °F -1.3 °F 72% 30.51 in 10.0 mi WNW 10.4 mph - N/A   Clear
11:25 PM 4.8 °F -10.2 °F -2.2 °F 73% 30.51 in 10.0 mi WNW 10.4 mph - N/A   Clear
11:45 PM 3.9 °F -13.0 °F -3.3 °F 72% 30.51 in 10.0 mi WNW 12.7 mph - N/A   Clear